sat.trackr.live / text

‹ back to catalog

STARLINK-32519

NORAD 62317 · 2024-239S

PAYLOAD ACTIVE UNKNOWN

§ Identity

Operator
Country
US
Launch date
2024-12-13
Launch site
AFWTR
Launch vehicle
Mass (kg)
RCS (m²)

Purposes: comms

External: N2YO · Heavens-Above · Gunter

§ Orbital elements

Epoch: 2026-05-25T01:51:10.647648Z

Period
94.11 min
Inclination
53.1579°
Eccentricity
0.0001100
Mean motion
15.30204066 rev/d
Perigee alt
474.4 km
Apogee alt
476.0 km
Semi-major
6,853.3 km
B*
4.6475e-4
RAAN
186.0069°
Arg perigee
97.1481°
Mean anomaly
262.9644°
Rev number
8,126

§ Raw data

STARLINK-325191 62317U 24239S   26145.07720657  .00013432  00000+0  46475-3 0  99922 62317  53.1579 186.0069 0001100  97.1481 262.9644 15.30204066 81260

JSON: /api/v1/satellites/62317 · /tle

For live sub-satellite position, see the globe view (requires WebGL).

§ Visibility from observer

Set your observer location to see the next 7 days of passes ≥ 10°. The values pass through the URL so the page stays shareable.

No JS? Fill the form by hand. The geolocation button needs JavaScript.